Showing default

MANDRAKE 2 BAKER, 48908

Orbit data source: Space-Track

MANDRAKE 2 BAKER, 48908 is an American payload satellite in SSO that was launched on Wed, 30 Jun 2021 UTC via an FALCON 9 launch vehicle from the Air Force Eastern Test Range (AFETR). Payload-class satellites include a variety of spacecraft equipped with specific instruments for various scientific and technological missions. These include communications satellites like Starlink; space stations such as the ISS; scientific satellites like the Hubble; Earth observation satellites from companies like Planet Labs, Umbra, and HawkEye 360; GPS; miniature CubeSats for education and research; and military/defense satellites.

Loading next visibility...
Identifier
48908, 2021-059AF
Orbit
SSO
Country
Flag of USUS
Related business
Manufacturer
Astro Digital
Mission
Operational Defense Communications
Bus & Motor
CORVUS-XL, Unknown motor
Mass
23 kg wet, 23 kg dry
Launch date (UTC)
2021-06-30 (4 years ago)
Launch vehicle
FALCON 9
Launch site
Air Force Eastern Test Range (AFETR)
Object type
Payload
Rocket body
Debris
Shape & HBR
Box + 1 Pan, 1.5 m
Radar Cross Section
0.375 m², Medium (>0.1 m² and < 1m²)

Expand to show TLE details & history
Last TLE update: 16 hours ago

TLE from 16 hours ago
0 MANDRAKE 2 BAKER
1 48908U 21059AF  25308.44183573  .00022154  00000-0  43536-3 0  9997
2 48908  97.6969 119.5164 0005164  83.3594 276.8243 15.47301660242409
Epoch: 2025-11-04T10:36Z
TLE epoch observation values (Epoch: 2025-11-04T10:36:14.607Z)
Latitude
0.00003°
Longitude
-83.47327°
Altitude
427.326 km
Speed
7.655 km/s
True Right ascension
07h 58m 03s
True Declination
0° 00' 00"
Sunlit
Object was in daylight at epoch
Visualization orbit readout
Latitude
Unknown
Longitude
Unknown
Altitude
Unknown
Speed
Unknown
Apparent Right ascension
Unknown
Apparent Declination
Unknown
Sunlit
N/A
Visualization observer readout
Local Sidereal Time
23:02:15
Azimuth
Unknown
Elevation
Unknown
Doppler factor
Unknown
Orbital elements
Apogee altitude
425.077 km
Perigee altitude
418.054 km
Semi-major axis
6,799.703 km
Eccentricity
0.00052
Inclination
97.6969°
RAAN
119.5164°
Arg. of periapsis
83.3594°
True anomaly
276.76554°
Mean anomaly
276.8243°
Eccentric anomaly
276.79492°
Mean motion
3.87087 °/min
Orbital period
93 mins
BSTAR
0.00043536
Loading maneuver chart data...
Computing Atmospheric mass density...

Documentation

Showing up to 5 results
|